Location: Bergfeld
(52.0500°N, 11.7833°E)
Time: 10:30:59
(UTC+00:00)

PAYLOAD A - Pass Details

Date: 17 February 2020
Orbit: 692 x 831 km, 98.3° (Epoch: 29 March)

Event Time Altitude Azimuth Distance (km) Brightness Sun altitude
Rises 04:04:39 0° 11° (NNE) 3,115 7.4 -22.2°
Reaches altitude 10° 04:06:55 10° 7° (N) 2,205 6.6 -21.8°
Maximum altitude 04:11:37 54° 291° (WNW) 886 4.0 -21.1°
Enters shadow 04:12:27 48° 255° (WSW) 959 4.0 -21.0°
